FW1419 Weather Reports


Display with metric or nautical units.
time (UTC)temp
F
wind
direction
speed
MPH
gust
MPH
rain 1hr
in
rain 24hr
in
rain mn
in
humidity
%
barometer
mb
20260902022328 79 259 4.0 9.0 0.00 0.00 0.00 28 1013.4
20260902021820 80 228 4.0 10.0 0.00 0.00 0.00 28 1013.3
20260902021311 80 210 4.0 10.0 0.00 0.00 0.00 28 1013.2
20260902020822 81 230 4.0 11.0 0.00 0.00 0.00 27 1013.2
20260902020313 81 188 5.0 11.0 0.00 0.00 0.00 27 1013.1
20260902015825 81 210 6.0 10.0 0.00 0.00 0.00 26 1013.1
20260902015319 82 229 4.0 8.0 0.00 0.00 0.00 26 1013.2
20260902014831 82 210 4.0 10.0 0.00 0.00 0.00 25 1013.1
20260902014322 82 219 5.0 13.0 0.00 0.00 0.00 25 1013.0
20260902013834 82 219 7.0 12.0 0.00 0.00 0.00 24 1013.0
20260902013324 83 263 6.0 14.0 0.00 0.00 0.00 24 1013.0
20260902012814 83 205 5.0 14.0 0.00 0.00 0.00 24 1013.0
20260902012347 84 226 5.0 12.0 0.00 0.00 0.00 23 1013.0
20260902011817 84 184 3.0 12.0 0.00 0.00 0.00 23 1013.0
20260902011328 85 229 4.0 11.0 0.00 0.00 0.00 22 1012.9
20260902010819 85 116 2.0 12.0 0.00 0.00 0.00 21 1012.8
20260902010329 85 164 4.0 12.0 0.00 0.00 0.00 21 1012.8
20260902005820 86 139 4.0 11.0 0.00 0.00 0.00 21 1012.8
20260902005315 86 240 6.0 12.0 0.00 0.00 0.00 21 1012.8
20260902004826 86 205 5.0 13.0 0.00 0.00 0.00 21 1012.8
20260902004319 86 221 7.0 13.0 0.00 0.00 0.00 21 1012.9
20260902003830 87 221 8.0 13.0 0.00 0.00 0.00 21 1012.9
20260902003322 87 226 4.0 11.0 0.00 0.00 0.00 22 1012.9
20260902002813 87 229 8.0 13.0 0.00 0.00 0.00 22 1012.8
20260902002345 87 216 8.0 13.0 0.00 0.00 0.00 22 1012.8
20260902001815 88 224 4.0 12.0 0.00 0.00 0.00 22 1012.8
20260902001348 88 225 5.0 12.0 0.00 0.00 0.00 22 1012.8
20260902000818 88 203 6.0 13.0 0.00 0.00 0.00 22 1012.8
20260902000314 88 221 5.0 13.0 0.00 0.00 0.00 22 1012.8
20260901235825 88 164 5.0 13.0 0.00 0.00 0.00 22 1012.9
20260901235315 88 236 4.0 12.0 0.00 0.00 0.00 23 1012.8
20260901234848 88 224 5.0 13.0 0.00 0.00 0.00 23 1012.8
20260901234317 88 188 8.0 15.0 0.00 0.00 0.00 23 1012.8
20260901233849 88 223 7.0 14.0 0.00 0.00 0.00 23 1012.7
20260901233339 89 210 6.0 13.0 0.00 0.00 0.00 24 1012.9
20260901232849 89 227 4.0 13.0 0.00 0.00 0.00 23 1012.9
20260901232321 89 206 6.0 13.0 0.00 0.00 0.00 24 1013.0
20260901231812 90 170 6.0 12.0 0.00 0.00 0.00 24 1012.9
20260901231324 90 242 4.0 11.0 0.00 0.00 0.00 24 1012.9
20260901230820 90 224 5.0 10.0 0.00 0.00 0.00 24 1012.8
20260901230311 90 226 3.0 13.0 0.00 0.00 0.00 24 1013.0
20260901225823 90 156 7.0 13.0 0.00 0.00 0.00 24 1012.9
20260901225316 90 220 6.0 11.0 0.00 0.00 0.00 23 1012.9
20260901224828 90 210 5.0 10.0 0.00 0.00 0.00 24 1012.9
20260901224319 90 208 3.0 11.0 0.00 0.00 0.00 24 1012.9
20260901223811 91 198 4.0 10.0 0.00 0.00 0.00 22 1013.0
20260901223323 91 232 5.0 10.0 0.00 0.00 0.00 22 1013.1
20260901222819 91 211 5.0 10.0 0.00 0.00 0.00 20 1013.2
20260901222352 91 218 3.0 12.0 0.00 0.00 0.00 21 1013.2
20260901221822 91 248 4.0 10.0 0.00 0.00 0.00 20 1013.3
20260901221313 91 219 4.0 8.0 0.00 0.00 0.00 20 1013.2
20260901220825 91 188 2.0 12.0 0.00 0.00 0.00 21 1013.3
20260901220316 91 203 4.0 12.0 0.00 0.00 0.00 20 1013.3
20260901215827 90 195 2.0 12.0 0.00 0.00 0.00 20 1013.4
20260901215318 90 217 5.0 12.0 0.00 0.00 0.00 21 1013.4
20260901214829 90 204 3.0 8.0 0.00 0.00 0.00 20 1013.7
20260901214325 90 91 4.0 12.0 0.00 0.00 0.00 20 1013.7
20260901213816 90 224 5.0 11.0 0.00 0.00 0.00 20 1013.6
20260901213348 90 223 2.0 9.0 0.00 0.00 0.00 20 1013.7
20260901212816 90 260 2.0 10.0 0.00 0.00 0.00 20 1013.7
20260901212347 90 225 6.0 14.0 0.00 0.00 0.00 19 1013.7
20260901211817 90 250 7.0 14.0 0.00 0.00 0.00 20 1013.9
20260901211329 90 279 2.0 5.0 0.00 0.00 0.00 19 1013.7
20260901210820 90 198 2.0 9.0 0.00 0.00 0.00 19 1013.9
20260901210313 89 229 5.0 9.0 0.00 0.00 0.00 18 1013.9
20260901205845 90 264 4.0 8.0 0.00 0.00 0.00 18 1013.8
20260901205335 90 219 4.0 8.0 0.00 0.00 0.00 18 1013.8
20260901204825 90 219 1.0 9.0 0.00 0.00 0.00 17 1013.9
20260901204321 90 226 4.0 9.0 0.00 0.00 0.00 16 1014.0
20260901203832 90 232 1.0 6.0 0.00 0.00 0.00 16 1014.0
20260901203343 90 224 3.0 9.0 0.00 0.00 0.00 16 1014.1
20260901202834 90 177 2.0 9.0 0.00 0.00 0.00 16 1014.3
20260901202325 90 248 2.0 9.0 0.00 0.00 0.00 15 1014.4
20260901201817 89 266 3.0 11.0 0.00 0.00 0.00 15 1014.5
20260901201327 89 270 6.0 11.0 0.00 0.00 0.00 15 1014.5
20260901200819 89 243 4.0 9.0 0.00 0.00 0.00 14 1014.6
20260901200311 89 203 3.0 9.0 0.00 0.00 0.00 14 1014.6
20260901195842 89 191 4.0 9.0 0.00 0.00 0.00 15 1014.6
20260901195318 89 175 4.0 10.0 0.00 0.00 0.00 15 1014.7
20260901194829 89 225 2.0 5.0 0.00 0.00 0.00 14 1014.7
20260901194320 88 272 3.0 6.0 0.00 0.00 0.00 15 1014.8
20260901193811 88 266 3.0 6.0 0.00 0.00 0.00 15 1014.8
20260901193322 87 203 3.0 6.0 0.00 0.00 0.00 17 1014.9
20260901192813 87 354 2.0 8.0 0.00 0.00 0.00 17 1015.0
20260901192324 87 275 2.0 6.0 0.00 0.00 0.00 17 1015.1
20260901191815 87 323 2.0 8.0 0.00 0.00 0.00 18 1015.1
20260901191328 87 278 3.0 8.0 0.00 0.00 0.00 17 1015.2
20260901190818 86 288 1.0 6.0 0.00 0.00 0.00 18 1015.2
20260901190313 86 96 2.0 7.0 0.00 0.00 0.00 20 1015.2
20260901185824 86 233 4.0 7.0 0.00 0.00 0.00 19 1015.3
20260901185337 86 251 2.0 9.0 0.00 0.00 0.00 21 1015.3
20260901184828 86 304 4.0 9.0 0.00 0.00 0.00 20 1015.4
20260901184320 86 261 3.0 6.0 0.00 0.00 0.00 21 1015.5
20260901183831 85 288 1.0 6.0 0.00 0.00 0.00 21 1015.4
20260901183343 85 249 1.0 6.0 0.00 0.00 0.00 21 1015.5
20260901182834 85 46 2.0 6.0 0.00 0.00 0.00 21 1015.5
20260901182324 85 277 1.0 4.0 0.00 0.00 0.00 21 1015.5
20260901181815 84 252 2.0 4.0 0.00 0.00 0.00 22 1015.6
20260901181312 85 235 2.0 7.0 0.00 0.00 0.00 21 1015.5
20260901180822 84 273 2.0 7.0 0.00 0.00 0.00 22 1015.6
20260901180313 84 215 1.0 4.0 0.00 0.00 0.00 23 1015.6
20260901175824 83 245 2.0 4.0 0.00 0.00 0.00 22 1015.6
20260901175315 83 198 1.0 6.0 0.00 0.00 0.00 22 1015.7
20260901174827 82 234 1.0 6.0 0.00 0.00 0.00 24 1015.6
20260901174339 82 304 2.0 5.0 0.00 0.00 0.00 25 1015.7
20260901173829 81 288 0.0 4.0 0.00 0.00 0.00 23 1015.6
20260901173322 81 280 2.0 4.0 0.00 0.00 0.00 25 1015.7
20260901172812 80 210 1.0 5.0 0.00 0.00 0.00 27 1015.7
20260901172328 79 300 3.0 5.0 0.00 0.00 0.00 26 1015.5
20260901171818 79 293 1.0 4.0 0.00 0.00 0.00 28 1015.5
20260901171350 79 310 2.0 4.0 0.00 0.00 0.00 28 1015.6
20260901170840 78 300 2.0 4.0 0.00 0.00 0.00 28 1015.6
20260901170330 78 300 1.0 4.0 0.00 0.00 0.00 29 1015.6
20260901165822 78 309 1.0 4.0 0.00 0.00 0.00 29 1015.6
20260901165314 77 302 2.0 4.0 0.00 0.00 0.00 29 1015.5
20260901164826 77 338 1.0 4.0 0.00 0.00 0.00 29 1015.5
20260901164318 77 283 2.0 4.0 0.00 0.00 0.00 29 1015.5
20260901163830 76 318 2.0 4.0 0.00 0.00 0.00 29 1015.5
20260901163326 76 268 1.0 4.0 0.00 0.00 0.00 29 1015.5
20260901162817 75 309 2.0 4.0 0.00 0.00 0.00 30 1015.5
20260901162328 75 27 1.0 3.0 0.00 0.00 0.00 30 1015.4
20260901161819 74 310 1.0 3.0 0.00 0.00 0.00 31 1015.5
20260901161330 74 293 0.0 2.0 0.00 0.00 0.00 33 1015.4
20260901160823 73 306 1.0 3.0 0.00 0.00 0.00 34 1015.4
20260901160314 73 312 1.0 3.0 0.00 0.00 0.00 34 1015.4
20260901155825 72 304 1.0 3.0 0.00 0.00 0.00 34 1015.4
20260901155316 72 335 0.0 3.0 0.00 0.00 0.00 35 1015.3
20260901154849 72 311 1.0 3.0 0.00 0.00 0.00 34 1015.3
20260901154322 72 306 0.0 2.0 0.00 0.00 0.00 34 1015.3
20260901153813 72 275 0.0 0.0 0.00 0.00 0.00 32 1015.2
20260901153324 71 314 0.0 0.0 0.00 0.00 0.00 32 1015.3
20260901152816 71 134 0.0 0.0 0.00 0.00 0.00 32 1015.3
20260901152326 72 134 0.0 0.0 0.00 0.00 0.00 31 1015.3
20260901151817 72 127 0.0 0.0 0.00 0.00 0.00 30 1015.2
20260901151330 72 127 0.0 0.0 0.00 0.00 0.00 30 1015.3
20260901150822 71 127 0.0 0.0 0.00 0.00 0.00 31 1015.1
20260901150317 70 127 0.0 0.0 0.00 0.00 0.00 32 1015.1
20260901145829 70 127 0.0 0.0 0.00 0.00 0.00 33 1015.2
20260901145321 70 108 0.0 0.0 0.00 0.00 0.00 34 1015.1
20260901144831 70 125 0.0 0.0 0.00 0.00 0.00 35 1015.2
20260901144343 69 125 0.0 0.0 0.00 0.00 0.00 36 1015.2
20260901143814 66 125 0.0 0.0 0.00 0.00 0.00 39 1015.1
20260901143326 65 125 0.0 0.0 0.00 0.00 0.00 40 1015.1
20260901142818 63 125 0.0 0.0 0.00 0.00 0.00 43 1015.1
20260901142331 62 125 0.0 0.0 0.00 0.00 0.00 45 1015.1
20260901141826 60 110 0.0 0.0 0.00 0.00 0.00 48 1015.1
20260901141317 57 110 0.0 0.0 0.00 0.00 0.00 50 1015.0
20260901140828 57 110 0.0 0.0 0.00 0.00 0.00 50 1015.0
20260901140319 57 110 0.0 0.0 0.00 0.00 0.00 49 1014.9
20260901135850 56 110 0.0 0.0 0.00 0.00 0.00 49 1014.8
20260901135321 56 110 0.0 0.0 0.00 0.00 0.00 50 1014.7
20260901134811 56 110 0.0 0.0 0.00 0.00 0.00 50 1014.6
20260901134323 56 110 0.0 0.0 0.00 0.00 0.00 50 1014.6
20260901133813 56 110 0.0 0.0 0.00 0.00 0.00 51 1014.6
20260901133325 56 110 0.0 0.0 0.00 0.00 0.00 52 1014.4
20260901132821 56 110 0.0 0.0 0.00 0.00 0.00 51 1014.3
20260901132311 57 110 0.0 0.0 0.00 0.00 0.00 51 1014.3
20260901131823 57 110 0.0 0.0 0.00 0.00 0.00 51 1014.3
20260901131314 57 110 0.0 0.0 0.00 0.00 0.00 50 1014.3
20260901130825 57 110 0.0 0.0 0.00 0.00 0.00 50 1014.2
20260901130337 57 110 0.0 0.0 0.00 0.00 0.00 51 1014.2
20260901125827 57 110 0.0 0.0 0.00 0.00 0.00 50 1014.2
20260901125317 57 110 0.0 0.0 0.00 0.00 0.00 48 1014.2
20260901124812 58 110 0.0 0.0 0.00 0.00 0.00 47 1014.2
20260901124323 58 110 0.0 0.0 0.00 0.00 0.00 47 1014.1
20260901123815 59 110 0.0 0.0 0.00 0.00 0.00 46 1014.1
20260901123327 59 110 0.0 0.0 0.00 0.00 0.00 46 1014.2
20260901122839 59 110 0.0 0.0 0.00 0.00 0.00 45 1014.2
20260901122330 59 110 0.0 0.0 0.00 0.00 0.00 46 1014.2
20260901121821 59 140 0.0 0.0 0.00 0.00 0.00 47 1014.2
20260901121312 59 140 0.0 0.0 0.00 0.00 0.00 46 1014.2
20260901120822 59 140 0.0 0.0 0.00 0.00 0.00 46 1014.2
20260901120314 59 140 0.0 0.0 0.00 0.00 0.00 47 1014.2
20260901115846 59 140 0.0 0.0 0.00 0.00 0.00 47 1014.1
20260901115321 59 140 0.0 0.0 0.00 0.00 0.00 47 1014.2
20260901114812 59 140 0.0 0.0 0.00 0.00 0.00 48 1014.3
20260901114344 59 140 0.0 0.0 0.00 0.00 0.00 48 1014.2
20260901113814 58 140 0.0 0.0 0.00 0.00 0.00 48 1014.3
20260901113326 59 140 0.0 0.0 0.00 0.00 0.00 47 1014.2
20260901112816 59 140 0.0 0.0 0.00 0.00 0.00 47 1014.3
20260901112348 59 140 0.0 0.0 0.00 0.00 0.00 47 1014.4
20260901111819 59 140 0.0 0.0 0.00 0.00 0.00 46 1014.4
20260901111311 59 140 0.0 0.0 0.00 0.00 0.00 46 1014.5
20260901110827 59 140 0.0 0.0 0.00 0.00 0.00 46 1014.4
20260901110317 59 140 0.0 0.0 0.00 0.00 0.00 46 1014.4
20260901105828 60 140 0.0 0.0 0.00 0.00 0.00 46 1014.4
20260901105340 60 140 0.0 0.0 0.00 0.00 0.00 47 1014.4
20260901104812 60 140 0.0 0.0 0.00 0.00 0.00 46 1014.4
20260901104324 60 140 0.0 0.0 0.00 0.00 0.00 47 1014.4
20260901103815 60 140 0.0 0.0 0.00 0.00 0.00 47 1014.4
20260901103326 60 140 0.0 0.0 0.00 0.00 0.00 48 1014.4
20260901102817 60 140 0.0 0.0 0.00 0.00 0.00 48 1014.3
20260901102328 60 140 0.0 0.0 0.00 0.00 0.00 48 1014.3
20260901101824 60 140 0.0 0.0 0.00 0.00 0.00 47 1014.3
20260901101315 60 140 0.0 0.0 0.00 0.00 0.00 47 1014.4
20260901100826 60 140 0.0 0.0 0.00 0.00 0.00 47 1014.4
20260901100317 60 140 0.0 0.0 0.00 0.00 0.00 47 1014.4
20260901095828 59 120 0.0 0.0 0.00 0.00 0.00 48 1014.4
20260901095338 60 120 0.0 0.0 0.00 0.00 0.00 47 1014.3
20260901094830 60 120 0.0 0.0 0.00 0.00 0.00 47 1014.3
20260901094321 60 120 0.0 0.0 0.00 0.00 0.00 46 1014.2
20260901093813 61 120 0.0 0.0 0.00 0.00 0.00 46 1014.4
20260901093345 61 120 0.0 0.0 0.00 0.00 0.00 47 1014.3
20260901092819 60 120 0.0 0.0 0.00 0.00 0.00 47 1014.3
20260901092330 60 120 0.0 0.0 0.00 0.00 0.00 47 1014.3
20260901091821 60 120 0.0 0.0 0.00 0.00 0.00 47 1014.3
20260901091312 60 120 0.0 0.0 0.00 0.00 0.00 47 1014.3
20260901090845 60 120 0.0 0.0 0.00 0.00 0.00 47 1014.3
20260901090315 61 120 0.0 0.0 0.00 0.00 0.00 46 1014.2
20260901085825 61 120 0.0 0.0 0.00 0.00 0.00 47 1014.3
20260901085316 61 120 0.0 0.0 0.00 0.00 0.00 47 1014.3
20260901084829 61 120 0.0 0.0 0.00 0.00 0.00 47 1014.3
20260901084340 61 120 0.0 0.0 0.00 0.00 0.00 48 1014.5
20260901083814 62 120 0.0 0.0 0.00 0.00 0.00 48 1014.4
20260901083325 62 120 0.0 0.0 0.00 0.00 0.00 48 1014.4
20260901082815 62 120 0.0 0.0 0.00 0.00 0.00 46 1014.5
20260901082328 62 120 0.0 0.0 0.00 0.00 0.00 46 1014.5
20260901081818 63 120 0.0 0.0 0.00 0.00 0.00 45 1014.5
20260901081328 63 120 0.0 0.0 0.00 0.00 0.00 44 1014.5
20260901080820 63 120 0.0 0.0 0.00 0.00 0.00 43 1014.6
20260901080311 63 123 0.0 0.0 0.00 0.00 0.00 43 1014.6
20260901075826 63 146 0.0 0.0 0.00 0.00 0.00 44 1014.7
20260901075317 63 146 0.0 0.0 0.00 0.00 0.00 45 1014.7
20260901074829 63 146 0.0 0.0 0.00 0.00 0.00 44 1014.8
20260901074341 63 146 0.0 0.0 0.00 0.00 0.00 44 1014.8
20260901073832 63 146 0.0 0.0 0.00 0.00 0.00 44 1014.7
20260901073322 63 146 0.0 0.0 0.00 0.00 0.00 43 1014.6
20260901072832 64 146 0.0 0.0 0.00 0.00 0.00 42 1014.6
20260901072323 64 146 0.0 0.0 0.00 0.00 0.00 42 1014.5
20260901071815 64 146 0.0 0.0 0.00 0.00 0.00 42 1014.5
20260901071326 64 146 0.0 0.0 0.00 0.00 0.00 43 1014.6
20260901070818 64 146 0.0 0.0 0.00 0.00 0.00 44 1014.6
20260901070313 64 146 0.0 0.0 0.00 0.00 0.00 44 1014.6
20260901065844 64 146 0.0 0.0 0.00 0.00 0.00 45 1014.4
20260901065333 64 146 0.0 0.0 0.00 0.00 0.00 45 1014.4
20260901064824 64 146 0.0 0.0 0.00 0.00 0.00 45 1014.4
20260901064313 65 146 0.0 0.0 0.00 0.00 0.00 44 1014.4
20260901063825 66 146 0.0 0.0 0.00 0.00 0.00 43 1014.1
20260901063337 66 146 0.0 0.0 0.00 0.00 0.00 44 1014.3
20260901062827 66 146 0.0 0.0 0.00 0.00 0.00 44 1014.3
20260901062337 67 146 0.0 0.0 0.00 0.00 0.00 44 1014.2
20260901061828 67 146 0.0 0.0 0.00 0.00 0.00 44 1014.2
20260901061340 67 304 0.0 0.0 0.00 0.00 0.00 44 1014.1
20260901060829 67 304 0.0 0.0 0.00 0.00 0.00 43 1014.1
20260901060325 68 304 0.0 0.0 0.00 0.00 0.00 41 1014.1
20260901055816 68 304 0.0 0.0 0.00 0.00 0.00 40 1014.2
20260901055347 68 304 0.0 0.0 0.00 0.00 0.00 38 1014.3
20260901054817 69 304 0.0 0.0 0.00 0.00 0.00 38 1014.4
20260901054329 69 304 0.0 0.0 0.00 0.00 0.00 38 1014.3
20260901053821 69 304 0.0 0.0 0.00 0.00 0.00 39 1014.3
20260901053332 70 155 0.0 0.0 0.00 0.00 0.00 41 1014.2
20260901052844 70 155 0.0 0.0 0.00 0.00 0.00 41 1014.1
20260901052315 70 155 0.0 0.0 0.00 0.00 0.00 40 1014.2
20260901051847 70 155 0.0 0.0 0.00 0.00 0.00 39 1014.2
20260901051318 70 155 0.0 0.0 0.00 0.00 0.00 40 1014.2
20260901050812 70 155 0.0 0.0 0.00 0.00 0.00 38 1014.1
20260901050324 70 155 0.0 0.0 0.00 0.00 0.00 39 1014.1
20260901045816 71 155 0.0 0.0 0.00 0.00 0.00 39 1014.1
20260901045327 71 155 0.0 0.0 0.00 0.00 0.00 38 1014.1
20260901044839 72 155 0.0 0.0 0.00 0.00 0.00 38 1014.1
20260901044330 72 155 0.0 0.0 0.00 0.00 0.00 38 1014.1
20260901043843 72 155 0.0 0.0 0.00 0.00 0.00 37 1014.1
20260901043313 73 155 0.0 0.0 0.00 0.00 0.00 36 1014.1
20260901042825 73 155 0.0 0.0 0.00 0.00 0.00 36 1014.1
20260901042321 74 155 0.0 0.0 0.00 0.00 0.00 35 1014.0
20260901041812 74 155 0.0 0.0 0.00 0.00 0.00 35 1014.0
20260901041323 74 155 0.0 0.0 0.00 0.00 0.00 35 1013.9
20260901040814 74 155 0.0 0.0 0.00 0.00 0.00 35 1013.8
20260901040325 75 155 0.0 0.0 0.00 0.00 0.00 35 1013.8
20260901035817 75 155 0.0 0.0 0.00 0.00 0.00 35 1013.7
20260901035330 75 155 0.0 0.0 0.00 0.00 0.00 35 1013.7
20260901034823 76 155 0.0 0.0 0.00 0.00 0.00 33 1013.7
20260901034314 76 155 0.0 2.0 0.00 0.00 0.00 33 1013.5
20260901033824 76 79 0.0 3.0 0.00 0.00 0.00 32 1013.4
20260901033339 76 210 0.0 0.0 0.00 0.00 0.00 29 1013.4
20260901032830 76 210 0.0 0.0 0.00 0.00 0.00 29 1013.3
20260901032343 77 210 0.0 1.0 0.00 0.00 0.00 27 1013.4
20260901031811 77 210 0.0 1.0 0.00 0.00 0.00 27 1013.3
20260901031343 77 210 0.0 1.0 0.00 0.00 0.00 27 1013.3
20260901030813 78 210 0.0 1.0 0.00 0.00 0.00 28 1013.3
20260901030324 78 185 0.0 1.0 0.00 0.00 0.00 28 1013.3
20260901025814 78 146 0.0 0.0 0.00 0.00 0.00 29 1013.2
20260901025325 79 146 0.0 2.0 0.00 0.00 0.00 28 1013.1
20260901024817 79 110 0.0 2.0 0.00 0.00 0.00 29 1013.0
20260901024330 79 143 0.0 2.0 0.00 0.00 0.00 29 1013.0
20260901023825 80 176 0.0 5.0 0.00 0.00 0.00 28 1012.9
20260901023316 80 221 1.0 5.0 0.00 0.00 0.00 28 1012.7
20260901022829 80 212 3.0 6.0 0.00 0.00 0.00 28 1012.5